Погода в Оксочи

Россия / Новгородская область     58°39′21″N   32°47′28″E
темп.,
°C
ветер,
м/с
пор.,
м/с
влажн.,
%
обл.,
%
осадки,
мм/ч
давл.,
гПа
погр.,
м
15 мая, сб
сб1500:00+11вюв27922 0.0 1010119
03:00+10в26955 0.0 100999
06:00+11в398950 0.0 1008236
09:00+16вюв487799 0.6 1006736
12:00+15юв4691100 0.9 1006855
15:00+16ююв3787100 1.3 1005684
18:00+16юз258414 0.1 1004441
21:00+13ююз129520 0.1 100413
16 мая, вс
вс1600:00+12ююз229794 0.0 100422
03:00+10ююз24988 0.2 100585
06:00+11ююз269841 0.0 1006222
09:00+13юз349268 0.0 1007375
12:00+17зюз576792 0.2 10081239
15:00+20зюз56475 0.2 10091581
18:00+19юз35525 0.0 10101485
21:00+13юз22742 0.0 101113
17 мая, пн
пн1700:00+12ююв227597 0.0 101214
03:00+11юв25860 0.0 101288
06:00+12юв26840 0.0 1012151
09:00+19ююв36615 0.0 1012747
12:00+22ююв4748100 0.0 10112072
15:00+24ююв474199 0.0 10102428
18:00+22юв4853100 0.0 1008813
21:00+18вюв51372100 0.1 1007579
18 мая, вт
вт1800:00+16вюв51395100 2.9 1005517
03:00+15юв41097100 3.7 1004304
06:00+15ююв2699100 1.1 1004318
09:00+15зюз139794 2.2 1004274
12:00+17ю1287100 0.1 1004517
15:00+17юз2389100 1.2 1003457
18:00+16зсз2394100 11.8 1003402
21:00+14зсз2298100 11.9 100256
19 мая, ср
ср1900:00+13зюз1199100 5.6 100334
03:00+13юз249998 6.8 1003177
06:00+12юз259875 0.1 1004183
09:00+15юз3485100 0.1 1005486
12:00+18зюз3466100 0.2 10041166
15:00+18зсз4561100 0.5 10041350
18:00+16зсз4771100 0.0 1005750
21:00+12з2883100 0.1 1007249